Welcome to the New NWS' Forecast!
Most changes are behind the scenes, but click here for differences you might notice.
Latest weather observations around

Missoula, Missoula International Airport (KMSO)

Using International System of Units (Switch to English Units)
Date/ Time (MST) Wind (kph) Vis. (km) Weather Sky Cond. Temp (°C) Rel. Humidity Wind Chill (°C) Heat Index (°C) Pressure Precip. (cm)
Air Dwpt 6 hour Altimeter (hPa) Sea level (hPa) 1 hr 3 hr 6 hr
Max Min
Nov 12 12:53 5 16.09 Clear CLR 1 -6     61% -1   1036.9 1040.5      
Nov 12 11:53 WNW 9 16.09 Partly Cloudy SCT021 -1 -7     63% -4   1037.6 1041.5      
Nov 12 11:49 NW 5 16.09 Partly Cloudy SCT021 -2 -7     69% -4   1037.6        
Nov 12 11:37 NW 9 16.09 Mostly Cloudy BKN023 -1 -7     66% -4   1037.6        
Nov 12 11:30 Calm 16.09 Partly Cloudy SCT024 -1 -7     63%     1037.6        
Nov 12 10:53 S 8 16.09 Cloudy OVC025 -2 -7     66% -5   1037.6 1041.7      
Nov 12 09:53 5 16.09 Mostly Cloudy BKN027 -2 -7     71% -4   1037.6 1041.7      
Nov 12 09:04 SE 9 16.09 Partly Cloudy SCT027 -3 -6     78% -6   1037.6        
Nov 12 08:53 ESE 9 16.09 Partly Cloudy SCT027 -3 -7     75% -6   1037.3 1041.5      
Nov 12 07:53 SE 8 16.09 Cloudy BKN024 OVC030 -4 -7     81% -7   1036.9 1041.3      
Nov 12 06:53 SE 8 16.09 Cloudy OVC029 -4 -7     81% -7   1037.3 1041.5      
Nov 12 06:25 SE 8 16.09 Cloudy SCT014 OVC029 -3 -7     74% -6   1037.3        
Nov 12 06:04 SSE 8 16.09 Cloudy BKN014 OVC028 -3 -7     77% -6   1037.3        
Nov 12 05:53 SE 8 16.09 Cloudy OVC012 -3 -7     77% -6   1037.3 1041.1      
Nov 12 05:46 SE 9 16.09 Cloudy BKN012 OVC027 -3 -7     77% -7   1036.9        
Nov 12 05:11 SE 5 16.09 Cloudy BKN014 OVC026 -3 -6     81% -6   1036.9        
Nov 12 04:53 SSE 5 16.09 Cloudy BKN015 OVC025 -3 -6     81% -6   1037.3 1041.1      
Nov 12 04:02 S 5 16.09 Cloudy BKN015 OVC024 -3 -6     81% -6   1036.9        
Nov 12 03:53 S 5 16.09 Cloudy BKN013 OVC024 -3 -6     84% -6   1036.9 1040.9      
Nov 12 03:49 Calm 16.09 Cloudy BKN013 OVC024 -3 -6     80%     1036.9        
Nov 12 02:53 Calm 14.48 Cloudy OVC010 -3 -5     88%     1037.3 1041.1      
Nov 12 01:53 E 5 16.09 Cloudy OVC010 -3 -5     85% -5   1036.9 1040.8      
Nov 12 00:53 SE 8 11.27 Cloudy OVC011 -4 -6     88% -7   1036.9 1040.9      
Nov 11 23:53 Calm 16.09 Cloudy BKN010 OVC015 -5 -7     88%     1036.6 1040.6      
Nov 11 23:30 WNW 5 6.44 Fog/Mist BKN010 -5 -6     92% -7   1036.2        
Nov 11 23:22 WNW 5 4.83 Fog/Mist SCT010 -5 -6     92% -7   1036.2        
Nov 11 22:53 WNW 5 11.27 Mostly Clear FEW065 -4 -6     91% -7   1035.9 1040.1      
Nov 11 22:15 W 9 12.87 Cloudy FEW036 SCT047 OVC060 -3 -5     88% -7   1035.9        
Nov 11 21:53 W 5 14.48 Cloudy BKN042 OVC060 -3 -6     84% -6   1035.9 1039.9      
Nov 11 20:53 Calm 16.09 Cloudy OVC043 -4 -6     85%     1035.2 1039.5      
Nov 11 19:53 NW 8 12.87 Cloudy SCT023 OVC050 -4 -6     91% -8   1034.2 1038.6      
Nov 11 18:53 NW 5 11.27 Mostly Cloudy BKN023 -4 -5     92% -6   1034.2 1038.3      
Nov 11 17:53 Calm 16.09 Cloudy OVC029 -2 -4     85%     1033.5 1037.3      
Nov 11 17:30 Calm 16.09 Mostly Cloudy FEW009 BKN029 -2 -4     85%     1033.2        
Nov 11 16:53 Calm 16.09 Mostly Clear FEW009 -2 -4     82%     1032.9 1036.6     0
Nov 11 16:08 Calm 16.09 Mostly Cloudy FEW008 SCT023 BKN034 -2 -4     85%     1032.5        
Nov 11 15:53 Calm 16.09 Mostly Cloudy FEW025 BKN034 -1 -4     81%     1032.2 1036.1 0    
Nov 11 15:46 Calm 16.09 Cloudy SCT027 OVC034 -1 -4     81%     1032.2   0    
Nov 11 15:22 Calm 16.09 Cloudy BKN028 OVC035 -1 -4     81%     1032.2   0    
Nov 11 14:53 Calm 14.48 Cloudy SCT030 BKN035 OVC090 -1 -4     81%     1031.8 1035.7 0    
Nov 11 14:18 W 8 11.27 Cloudy FEW008 BKN037 OVC085 -2 -4     85% -5   1031.5   0    
Nov 11 13:53 Calm 8.05 Light Snow and Fog/Mist BKN039 OVC048 -2 -4     85%     1031.2 1035.3 0 0  
Nov 11 12:53 Calm 16.09 Cloudy FEW050 OVC080 -2 -5     78%     1030.8 1035.2 0    
Nov 11 11:53 Calm 4.83 Light Snow and Fog/Mist SCT034 OVC050 -2 -4     85%     1030.8 1035.1 0    
Nov 11 11:45 Calm 3.22 Light Snow and Fog/Mist BKN026 OVC055 -2 -4     85%     1030.8   0    
Nov 11 11:21 Calm 2.01 Light Snow OVC025 -2 -5     81%     1030.8   0    
Nov 11 11:05 Calm 3.22 Light Snow BKN029 OVC040 -3 -6     81%     1030.8   0    
Nov 11 11:01 SE 5 2.82 Light Snow and Fog/Mist BKN031 OVC041 -3 -5     85% -5   1030.5   0    
Nov 11 10:53 Calm 4.83 Light Snow BKN035 OVC045 -3 -6     81%     1030.5 1034.8 0   0
Nov 11 09:53 Calm 14.48 Cloudy FEW032 OVC039 -3 -5     85%     1030.5 1034.4 0    
Nov 11 09:27 ESE 5 6.44 Light Snow and Fog/Mist FEW034 BKN043 OVC055 -3 -6     84% -6   1030.1   0    
Nov 11 09:15 Calm 4.02 Light Snow and Fog/Mist SCT035 BKN045 OVC055 -3 -6     84%     1029.8   0    
Nov 11 09:00 Calm 6.44 Light Snow and Fog/Mist SCT032 BKN045 OVC070 -3 -6     84%     1029.8   0    
Nov 11 08:53 Calm 8.05 Light Snow and Fog/Mist SCT038 BKN045 OVC070 -3 -6     84%     1029.5 1033.3 0    
Nov 11 08:01 W 5 8.05 Fog/Mist OVC070 -4 -6     88% -6   1029.1   0    
Nov 11 07:53 W 5 4.02 Light Snow and Fog/Mist OVC065 -4 -6     88% -6   1028.8 1032.7 0 0  
Nov 11 06:53 Calm 12.87 Cloudy OVC060 -3 -6     81%     1028.1 1031.9      
Nov 11 05:53 S 8 16.09 Cloudy OVC050 -4 -6     88% -7   1028.5 1031.8      
Nov 11 04:53 SE 5 16.09 Cloudy OVC042 -4 -6     88% -7   1028.8 1031.9      
Nov 11 03:53 Calm 16.09 Cloudy OVC040 -4 -7     84%     1028.8 1032.2      
Nov 11 02:53 W 5 16.09 Cloudy OVC040 -5 -7     85% -7   1028.8 1032.1      
Nov 11 01:53 Calm 16.09 Partly Cloudy SCT044 -6 -8     84%     1028.5 1031.7      
Nov 11 00:53 NW 5 16.09 Clear CLR -6 -8     84% -9   1028.1 1031.7      
Nov 10 23:53 N 9 16.09 Clear CLR -6 -8     81% -10   1027.8 1031.2      
Nov 10 22:53 Calm 16.09 Clear CLR -5 -7     85%     1027.4 1030.7      
Nov 10 21:53 Calm 16.09 Clear CLR -4 -7     81%     1027.1 1030.4      
Nov 10 20:53 NE 5 16.09 Clear CLR -3 -6     78% -5   1026.4 1029.6      
Nov 10 19:53 Calm 16.09 Clear CLR -2 -6     78%     1026.1 1029.3      
Nov 10 18:53 NNW 8 16.09 Clear CLR -1 -5     75% -4   1025.7 1028.9      
Nov 10 17:53 NNW 11 16.09 Clear CLR 0 -4     72% -4   1025.1 1028      
Nov 10 16:53 NNW 15 16.09 Clear CLR 2 -4     64% -2   1025.1 1027.7      
Nov 10 15:53 N 18 16.09 Cloudy OVC060 2 -3     67% -2   1024.4 1027      
Nov 10 14:53 N 17 16.09 Cloudy OVC060 3 -3     64% -1   1024.1 1026.7      
Nov 10 13:53 NNW 13 16.09 Mostly Cloudy FEW030 SCT042 BKN055 4 -3     62% 1   1023.7 1026.1      
Nov 10 13:44 NNW 9 16.09 Mostly Cloudy FEW031 SCT040 BKN055 3 -3     67% 0   1023.4        
Nov 10 12:53 WNW 11 16.09 Cloudy OVC055 2 -1     79% -1   1023.4 1026.2      
Nov 10 11:53 NW 17 16.09 Cloudy FEW028 OVC050 2 -2     73% -2   1023.4 1026.1      
Nov 10 11:06 WNW 13 16.09 Cloudy SCT030 BKN040 OVC049 1 -2     79% -3   1023        
Nov 10 10:53 WNW 11 16.09 Cloudy BKN038 BKN046 OVC060 1 -2     82% -2   1022.7 1025.6 0   0
Nov 10 09:53 WSW 11 11.27 Light Snow FEW028 BKN048 OVC060 0 -2     88% -4   1022.4 1025.2 0    
Nov 10 09:39 WNW 9 6.44 Light Snow and Fog/Mist SCT028 OVC039 0 -2     88% -3   1022   0    
Nov 10 09:29 WNW 8 6.44 Light Snow and Fog/Mist BKN029 BKN041 OVC050 0 -2     88% -3   1022   0    
Nov 10 09:19 WNW 5 6.44 Light Snow and Fog/Mist FEW027 BKN041 OVC065 0 -2     88% -2   1021.7   0    
Nov 10 09:08 W 5 3.22 Light Snow and Fog/Mist BKN039 OVC065 0 -2     88% -2   1021.7   0    
Nov 10 08:53 WNW 5 3.22 Light Snow and Fog/Mist OVC025 0 -2     88% -2   1021.7 1024.6 0    
Nov 10 08:36 W 8 2.01 Light Snow and Fog/Mist OVC029 0 -2     88% -3   1021.3   0    
Nov 10 08:19 Calm 3.22 Light Snow and Fog/Mist BKN033 OVC048 0 -2     85%     1021   0    
Nov 10 08:07 Calm 3.22 Light Snow and Fog/Mist SCT037 OVC048 0 -2     85%     1020.7   0    
Nov 10 07:53 SSE 5 16.09 Cloudy OVC048 -1 -2     89% -2   1020.7 1023.6      
Nov 10 06:53 Calm 16.09 Cloudy OVC042 -1 -2     89%     1020 1022.9      
Nov 10 05:53 Calm 16.09 Cloudy BKN042 OVC050 -1 -2     89%     1019.7 1022.7      
Nov 10 04:53 Calm 16.09 Cloudy OVC049 -1 -2     89%     1019 1022.2     0
Nov 10 03:53 Calm 16.09 Cloudy OVC047 -1 -2     89%     1019 1022      
Nov 10 02:53 Calm 16.09 Cloudy FEW041 OVC055 -1 -3     85%     1019 1021.9      
Nov 10 01:53 Calm 16.09 Cloudy OVC047 -1 -3     88%     1018.6 1022   0  
Nov 10 00:53 ESE 5 16.09 Cloudy OVC045 -1 -3     85% -3   1018.3 1021.5 0    
Nov 09 23:53 Calm 16.09 Cloudy OVC038 -1 -3     85%     1018.6 1021.6      
Nov 09 22:53 NW 8 16.09 Cloudy OVC042 -1 -3     85% -4   1018 1021     0
Nov 09 21:53 5 14.48 Cloudy FEW038 OVC049 -2 -4     85% -4   1017.3 1020.7 0    
Nov 09 21:28 E 5 6.44 Light Snow and Fog/Mist BKN036 OVC050 -2 -4     85% -4   1017.3   0    
Nov 09 20:53 Calm 9.66 Light Snow OVC055 -2 -4     82%     1017.3 1021.1 0    
Nov 09 20:17 Calm 6.44 Light Snow SCT033 BKN055 OVC070 -2 -4     82%     1017.6   0    
Nov 09 19:53 WSW 9 16.09 Cloudy BKN060 OVC075 -1 -4     78% -4   1017.3 1021.1      
Nov 09 18:53 SSW 8 16.09 Cloudy OVC075 -2 -4     82% -5   1017.3 1021      
Nov 09 17:53 Calm 16.09 Cloudy OVC080 -2 -5     78%     1017.6 1021.4      
Nov 09 16:53 WNW 8 16.09 Cloudy OVC085 -2 -5     78% -5   1018 1021.7      
Nov 09 15:53 NW 8 16.09 Cloudy OVC090 -2 -6     75% -5   1019 1022.6      
Nov 09 14:53 WNW 8 16.09 Cloudy OVC095 -2 -6     75% -5   1020 1024      
Nov 09 13:53 W 9 16.09 Cloudy OVC110 -2 -6     78% -6   1021.7 1025.3      
Nov 09 12:53 W 5 16.09 Cloudy OVC120 -2 -5     78% -4   1023 1026.9      
Nov 09 11:53 WNW 5 16.09 Mostly Cloudy BKN120 -2 -5     78% -4   1025.1 1028.7      
Nov 09 10:53 WSW 8   Clear CLR -3 -4     89% -6   1026.8 1030.3      
Nov 09 09:53 Calm 12.87 Clear CLR -3 -6     84%     1027.8 1031.6      
Nov 09 08:53 Calm 16.09 Mostly Clear FEW006 -5 -7     88%     1028.8 1032.9      
Nov 09 07:53 Calm 16.09 Partly Cloudy SCT110 -6 -8     88%     1029.5 1033.3      
Nov 09 06:53 Calm 16.09 Clear CLR -6 -7     92%     1029.8 1033.6      
Nov 09 06:05 Calm 16.09 Mostly Clear FEW010 -6 -7     92%     1030.5        
Nov 09 05:53 Calm 16.09 Clear CLR -6 -8     84%     1030.5 1034.3      
Nov 09 04:53   16.09 Mostly Cloudy BKN065 -5 -8     81%     1031.2 1034.4      
Nov 09 03:53 Calm 16.09 Mostly Cloudy BKN065 -6 -8     81%     1031.5 1034.7      
Nov 09 02:53 Calm 16.09 Clear CLR -6 -9     81%     1031.8 1035.3      
Nov 09 01:53 Calm 16.09 Clear CLR -5 -8     81%     1031.8 1035.3      
Nov 09 00:53 Calm 16.09 Clear CLR -6 -8     84%     1032.2 1035.9      
Nov 08 23:53 Calm 16.09 Clear CLR -4 -7     81%     1032.5 1036.1      
Nov 08 22:53 Calm 16.09 Clear CLR -2 -6     78%     1032.5 1036.2      
Nov 08 21:53 NW 8 16.09 Clear CLR -3 -6     78% -6   1032.5 1036.2      
Nov 08 20:53 NNW 5 16.09 Clear CLR -2 -6     75% -4   1032.2 1035.9      
Nov 08 19:53 N 5 16.09 Clear CLR -1 -4     75% -2   1031.8 1035.6      
Nov 08 18:53 NNW 8 16.09 Mostly Cloudy BKN049 0 -4     75% -3   1031.8 1035.3      
Nov 08 17:53 WSW 13 16.09 Cloudy OVC050 1 -4     67% -3   1031.2 1034.6      
Nov 08 16:53 W 5 16.09 Cloudy OVC050 2 -3     67% 1   1031.2 1034.2      
Nov 08 16:04 Calm 16.09 Cloudy FEW035 OVC047 4 -4     57%     1030.8        
Nov 08 15:53 Calm 16.09 Cloudy OVC047 4 -4     55%     1030.8 1033.5      
Nov 08 14:53 Calm 16.09 Mostly Cloudy BKN048 3 -4     59%     1030.8 1033.6      
Nov 08 13:53 N 5 16.09 Mostly Cloudy BKN049 3 -3     64% 1   1030.8 1033.6      
Nov 08 12:53 Calm 16.09 Partly Cloudy SCT047 2 -2     75%     1030.8 1033.8      
Nov 08 11:53 E 8 16.09 Cloudy OVC046 0 -1     92% -3   1031.2 1034.5      
Nov 08 10:53 SW 5 11.27 Cloudy OVC050 -1 -2     92% -3   1031.2 1034.4      
Nov 08 10:19 W 8 11.27 Cloudy SCT007 OVC050 -1 -2     92% -4   1030.8        
Nov 08 09:53 W 5 9.66 Fog/Mist BKN007 OVC050 -2 -2     96% -4   1030.8 1034.1      
Nov 08 09:48 W 5 9.66 Fog/Mist BKN007 OVC050 -2 -3     93% -4   1030.8        
Nov 08 08:53 Calm 4.83 Fog/Mist SCT009 SCT017 OVC050 -2 -3     92%     1030.1 1033.5      
Nov 08 08:11 Calm 8.05 Fog/Mist OVC009 -3 -4     92%     1029.8        
Nov 08 07:53 Calm 9.66 Fog/Mist OVC012 -3 -4     92%     1029.8 1033.2      
Nov 08 07:46 W 5 9.66 Fog/Mist OVC014 -3 -4     92% -6   1029.8        
Nov 08 07:28 W 5 4.02 Fog/Mist OVC013 -3 -4     92% -6   1029.5        
Nov 08 07:18 Calm 3.22 Fog/Mist OVC012 -3 -4     92%     1029.5        
Nov 08 07:00 Calm 4.83 Fog/Mist OVC012 -4 -5     92%     1029.5        
Nov 08 06:53 Calm 2.82 Fog/Mist OVC013 -4 -5     92%     1029.1 1033      
Nov 08 06:44 W 5 2.01 Fog/Mist BKN013 OVC055 -4 -5     92% -6   1029.1        
Nov 08 06:39 WSW 5 1.21 Fog/Mist BKN013 OVC055 -4 -6     91% -7   1029.1        
Nov 08 06:29 SSW 8 0.4 Fog FEW004 BKN013 OVC055 -4 -5     96% -8   1029.1        
Nov 08 06:22 W 5 0.8 Fog BKN013 OVC055 -4 -5     92% -6   1029.1        
Nov 08 06:15 W 9 1.61 Fog/Mist OVC014 -4 -5     92% -8   1029.1        
Nov 08 06:12 W 9 2.41 Fog/Mist OVC014 -4 -4     96% -8   1029.1        
Nov 08 06:05 Calm 11.27 Cloudy OVC014 -2 -3     92%     1029.1        
Nov 08 05:53 Calm 9.66 Fog/Mist OVC015 -2 -3     92%     1029.1 1032.3      
Nov 08 05:09 Calm 4.83 Fog/Mist OVC016 -2 -3     92%     1028.5        
Nov 08 05:06 Calm 2.41 Fog/Mist OVC016 -2 -3     92%     1028.5        
Nov 08 05:01 ENE 5 0.8 Fog OVC016 -3 -4     92% -5   1028.5        
Nov 08 04:53 Calm 0.4 Fog OVC017 -3 -4     92%     1028.5 1031.9 0   0
Nov 08 04:36 Calm 0.4 Fog SCT007 OVC017 -3 -4     92%     1028.5   0    
Nov 08 04:22 SSW 5 0.4 Fog BKN005 OVC017 -3 -4     89% -5   1028.5   0    
Nov 08 04:18 SSW 5 0.8 Fog BKN003 BKN017 OVC070 -3 -4     92% -6   1028.5   0    
Nov 08 04:14 S 5 1.61 Fog/Mist SCT005 BKN017 OVC070 -3 -4     92% -5   1028.1   0    
Nov 08 04:04 SSW 9 2.41 Fog/Mist SCT005 BKN016 OVC070 -3 -4     92% -7   1028.1   0    
Nov 08 03:53 SW 8 4.02 Light Snow and Fog/Mist FEW003 BKN018 OVC070 -3 -4     92% -6   1028.1 1031.3 0    
Nov 08 03:49 SW 8 2.82 Light Snow and Fog/Mist FEW003 BKN018 OVC070 -3 -4     93% -6   1028.1   0    
Nov 08 03:42 WSW 5 2.82 Fog/Mist OVC019 -2 -3     92% -4   1028.1   0    
Nov 08 03:32 Calm 4.83 Light Snow and Fog/Mist OVC019 -2 -3     92%     1028.1   0    
Nov 08 03:08 Calm 3.22 Light Snow and Fog/Mist BKN019 OVC044 -1 -3     88%     1028.1   0    
Nov 08 03:04 Calm 2.01 Light Snow and Fog/Mist BKN019 OVC044 -1 -3     88%     1027.8   0    
Nov 08 02:57 Calm 1.21 Light Snow and Fog/Mist SCT011 OVC018 -2 -3     92%     1027.8   0    
Nov 08 02:53 Calm 2.01 Light Snow and Fog/Mist SCT011 OVC018 -2 -3     92%     1027.8 1030.8 0    
Nov 08 02:38 Calm 3.22 Light Snow and Fog/Mist SCT005 OVC020 -2 -2     96%     1027.8   0    
Nov 08 02:36 Calm 2.41 Light Snow and Fog/Mist BKN007 OVC020 -2 -2     96%     1027.8   0    
Nov 08 02:33 Calm 1.61 Light Snow and Fog/Mist BKN007 OVC020 -2 -2     96%     1027.8   0    
Nov 08 02:23 Calm 0.4 Heavy Snow and Fog FEW003 OVC009 -1 -2     92%     1027.8   0    
Nov 08 02:20 Calm 0.4 Heavy Snow and Fog FEW003 OVC013 -1 -3     88%     1027.8   0    
Nov 08 02:17 Calm 0.8 Snow and Fog FEW004 OVC015 -1 -3     88%     1027.8   0    
Nov 08 02:10 N 5 1.61 Light Snow and Fog/Mist FEW004 BKN019 OVC055 -2 -3     92% -4   1027.8   0    
Nov 08 02:07 NNW 5 2.82 Light Snow and Fog/Mist FEW004 BKN024 OVC055 -2 -3     92% -4   1027.8   0    
Nov 08 02:04 NNW 5 4.83 Fog/Mist FEW004 BKN028 OVC055 -2 -3     92% -4   1027.8        
Nov 08 01:53 Calm 8.05 Fog/Mist FEW033 BKN046 OVC055 -2 -3     92%     1027.4 1030.3      
Nov 08 00:53 Calm 12.87 Cloudy BKN035 OVC045 -2 -3     89%     1027.1 1029.9      
Nov 07 23:53 Calm 9.66 Fog/Mist FEW036 OVC050 -2 -3     92%     1026.8 1029.9      
Nov 07 23:36 Calm 8.05 Fog/Mist FEW004 BKN050 OVC080 -2 -3     92%     1026.8        
Nov 07 22:53 W 5 12.87 Cloudy SCT043 OVC060 -2 -3     92% -4   1026.4 1029.7 0   0
Nov 07 22:00 Calm 9.66 Fog/Mist FEW008 OVC044 -1 -3     88%     1026.1   0    
Nov 07 21:53 Calm 6.44 Light Snow and Fog/Mist SCT010 OVC044 -1 -3     88%     1025.7 1028.8 0    
Nov 07 21:47 Calm 3.22 Light Snow and Fog/Mist SCT012 OVC042 -1 -3     86%     1025.7   0    
Nov 07 21:45 Calm 2.41 Light Snow and Fog/Mist BKN014 OVC042 -1 -3     88%     1025.7   0    
Nov 07 21:43 ESE 5 1.61 Light Snow and Fog/Mist BKN014 OVC042 -1 -3     88% -3   1025.7   0    
Nov 07 21:34 NNE 5 1.21 Light Snow and Fog/Mist BKN012 OVC038 -1 -3     85% -3   1025.7   0    
Nov 07 21:31 NNE 5 1.61 Light Snow and Fog/Mist BKN014 OVC038 -1 -3     85% -3   1025.7   0    
Nov 07 21:29 NNE 8 2.01 Light Snow BKN016 OVC038 -1 -3     82% -3   1025.7   0    
Nov 07 21:26 NE 9 4.02 Light Snow SCT020 OVC038 -1 -3     82% -4   1025.7   0    
Nov 07 20:53 N 11 16.09 Cloudy OVC038 -1 -4     75% -4   1025.4 1028.3 0    
Nov 07 20:07 NNW 13 4.83 Light Snow SCT019 BKN039 OVC055 -1 -4     75% -5   1025.1   0    
Nov 07 19:58 NW 17 4.02 Light Snow BKN021 BKN027 OVC060 -1 -4     75% -5   1024.7   0    
Nov 07 19:53 NW 13 12.87 Cloudy FEW023 BKN031 OVC060 -1 -4     75% -5   1024.7 1027.7 0 0  
Nov 07 19:36 WNW 15 14.48 Cloudy BKN022 OVC031 -1 -4     75% -5   1024.7   0    
Nov 07 19:27 WNW 11 3.22 Light Snow OVC018 -1 -4     81% -5   1024.7   0    
Nov 07 19:24 NW 9 2.01 Light Snow OVC016 -1 -4     81% -4   1024.7   0    
Nov 07 19:21 NNW 13 1.61 Light Snow VV014 -1 -4     81% -5   1024.7   0    
Nov 07 19:12   2.01 Light Snow BKN017 OVC038 -1 -4     81%     1024.7   0    
Nov 07 18:59 NNW 18 4.02 Light Snow BKN017 OVC037 -1 -3     82% -6   1024.4   0    
Nov 07 18:53 NNW 17 4.83 Light Snow SCT017 OVC036 -1 -3     82% -5   1024.4 1027.3 0    
Nov 07 18:35 NW 13 2.82 Light Snow BKN019 OVC038 -1 -3     82% -5   1024.1   0    
Nov 07 18:19 WNW 11 8.05 Light Snow OVC017 -1 -3     82% -4   1024.1   0    
Nov 07 18:11 NW 9 6.44 Light Snow and Fog/Mist OVC013 -1 -3     85% -4   1023.7   0    
Nov 07 18:08 NNW 11 4.02 Light Snow and Fog/Mist OVC013 -1 -3     85% -4   1023.7   0    
Nov 07 18:04 N 17 2.41 Light Snow and Fog/Mist OVC011 -1 -3     85% -5   1023.7   0    
Nov 07 18:01 NNW 17 2.01 Light Snow and Fog/Mist OVC009 -1 -3     85% -5   1023.7   0    
Nov 07 17:53 NNE 17 0.8 Snow and Fog VV006 -1 -3     85% -5   1023.7 1026.5 0    
Nov 07 17:48   0.8 Snow and Fog VV006 -1 -3     86%     1023.7   0    
Nov 07 17:34   1.61 Light Snow and Fog/Mist BKN006 OVC025 -1 -2     89%     1023.4   0    
Nov 07 17:11 N 17 1.61 Light Snow FEW009 BKN024 OVC031 1 -3     78% -4   1023   0    
Nov 07 16:56   1.61 Light Snow and Fog/Mist BKN020 OVC025 0 -2     85%     1023   0    
Nov 07 16:53   0.4 Snow and Fog BKN020 OVC025 0 -2     85%     1023 1025.9 0   0
Nov 07 16:45   0.8 Snow FEW024 BKN028 OVC075 1 -2     82%     1022.7   0    
Nov 07 16:43   1.61 Light Snow FEW024 BKN032 OVC048 1 -3     78%     1022.7   0    
Nov 07 16:40   2.82 Light Snow FEW024 BKN034 OVC065 1 -3     78%     1022.7   0    
Nov 07 16:02 8 12.87 Light Snow SCT021 BKN048 OVC090 2 -2     75% -1   1022.4   0    
Nov 07 15:53 W 15 16.09 Mostly Cloudy SCT041 BKN050 BKN070 2 -2     75% -2   1022.4 1025 0    
Nov 07 15:11 N 11 16.09 Cloudy FEW010 BKN042 OVC090 2 -1     79% -1   1022   0    
Nov 07 14:53 Calm 14.48 Light Rain SCT008 BKN023 OVC060 2 1     89%     1022 1024.4 0    
Nov 07 14:33 Calm 16.09 Cloudy SCT014 BKN040 OVC046 2 1     89%     1022        
Nov 07 14:10 Calm 16.09 Cloudy FEW006 BKN015 OVC049 2 1     89%     1021.7        
Nov 07 13:53 WSW 5 16.09 Mostly Cloudy SCT006 SCT016 BKN048 2 1     89% 1   1021.7 1024 0 0  
Nov 07 13:36 W 8 16.09 Mostly Cloudy SCT006 SCT042 BKN085 2 0     88% -1   1021.7   0    
Nov 07 12:53 NW 5 14.48 Cloudy SCT017 SCT030 OVC041 2 0     88% 0   1021.7 1024 0    
Nov 07 12:30 N 8 9.66 Fog/Mist FEW002 BKN017 OVC039 1 0     92% -1   1021.7   0    
Nov 07 12:18 Calm 6.44 Fog/Mist FEW002 FEW017 OVC037 1 0     92%     1021.7   0    
Nov 07 11:53 Calm 3.22 Light Snow and Fog/Mist SCT017 BKN033 OVC047 1 0     96%     1021.7 1024.2 0    
Nov 07 11:42 Calm 0.8 Snow and Fog BKN015 BKN040 OVC049 1 0     96%     1021.7   0    
Nov 07 11:39 Calm 0.4 Snow and Fog FEW001 BKN013 OVC049 1 -1     92%     1021.7   0    
Nov 07 11:26 W 5 0.4 Light Snow and Fog BKN008 OVC012 1 -1     92% -1   1021.7   0    
Nov 07 11:10 WNW 5 0.4 Light Snow and Fog BKN012 OVC060 1 -1     92% -1   1021.7   0    
Nov 07 10:57 W 5 0.8 Fog BKN010 BKN040 OVC060 1 -1     92% -1   1021.7        
Nov 07 10:53 W 5 4.83 Fog/Mist BKN013 OVC050 1 -1     92% -1   1021.7 1024.2     0
Nov 07 09:53 Calm 12.87 Cloudy BKN013 OVC065 1 -1     92%     1021.3 1023.8      
Nov 07 09:30 NNW 9 11.27 Cloudy BKN013 OVC065 1 -1     92% -2   1021        
Nov 07 08:53 N 5 2.41 Fog/Mist BKN004 OVC011 0 -1     96% -2   1020.7 1023.2      
Nov 07 08:51 NNW 5 2.01 Fog/Mist BKN004 OVC011 0 -1     93% -2   1020.7        
Nov 07 08:50 NNW 5 1.61 Fog/Mist BKN004 OVC011 0 -1     93% -2   1020.7        
Nov 07 08:32 N 8 0.4 Fog BKN004 OVC008 0 -1     96% -3   1020.7        
Nov 07 08:17 W 5 0.4 Fog OVC006 0 -1     96% -2   1020.3        
Nov 07 08:06 W 5 1.21 Fog/Mist OVC006 0 -1     96% -2   1020.3        
Nov 07 08:04 WSW 5 2.41 Fog/Mist OVC007 0 -1     96% -2   1020.3        
Nov 07 07:53 WSW 5 6.44 Fog/Mist OVC007 0 -1     96% -2   1020.3 1022.9 0 0  
Nov 07 07:00 Calm 6.44 Fog/Mist OVC007 0 -1     96%     1020   0    
Nov 07 06:53 Calm 2.01 Snow and Fog/Mist OVC007 0 -1     96%     1020 1022.5 0    
Nov 07 06:33 Calm 2.01 Snow and Fog/Mist BKN007 OVC011 0 -1     96%     1020   0    
Nov 07 06:24 Calm 2.01 Snow and Fog/Mist SCT007 OVC011 0 -1     96%     1020   0    
Nov 07 06:00 W 8 2.01 Snow and Fog/Mist BKN007 BKN018 OVC041 0 -1     96% -3   1020   0    
Nov 07 05:53 W 8 2.01 Unknown Precipitation and Fog/Mist BKN006 BKN011 OVC041 0 -1     96% -3   1020 1022.2 0    
Nov 07 05:50 W 9 2.01 Unknown Precipitation and Fog/Mist BKN006 BKN014 OVC041 0 -1     93% -3   1020   0    
Nov 07 05:44 W 9 4.02 Light Snow and Fog/Mist SCT006 BKN012 OVC041 0 -1     96% -3   1020   0    
Nov 07 05:37 W 8 4.83 Light Snow and Fog/Mist FEW005 BKN012 OVC041 0 -1     96% -3   1019.7   0    
Nov 07 05:32 W 8 2.82 Light Snow and Fog/Mist SCT005 BKN013 OVC021 0 -1     96% -3   1019.7   0    
Nov 07 05:27 WNW 5 2.01 Light Snow and Fog/Mist BKN005 OVC013 0 -1     96% -2   1019.7   0    
Nov 07 05:12 NNW 9 1.21 Light Snow and Fog/Mist BKN005 OVC009 0 -1     96% -3   1019.7   0    
Nov 07 05:03 WNW 11 1.61 Light Snow and Fog/Mist SCT005 OVC008 0 -1     96% -4   1019.7   0    
Nov 07 04:59 NW 11 2.82 Light Snow and Fog/Mist OVC008 0 -1     92% -4   1019.7   0    
Nov 07 04:53 W 8 4.02 Light Snow and Fog/Mist SCT005 OVC010 0 -1     96% -3   1019.7 1021.8 0   1
Nov 07 04:50 WNW 5 4.02 Light Snow and Fog/Mist BKN005 OVC010 0 -1     93% -2   1019.7   0    
Nov 07 04:43 Calm 2.82 Light Snow and Fog/Mist BKN005 OVC011 0 -1     96%     1019.3   0    
Nov 07 04:31 ESE 9 2.82 Light Snow and Fog/Mist OVC003 1 -1     92% -2   1019.3   0    
Nov 07 04:13 E 9 4.83 Light Snow and Fog/Mist BKN003 BKN011 OVC033 0 -1     96% -3   1019.7   0    
Nov 07 04:04 ESE 13 4.02 Light Snow and Fog/Mist FEW003 BKN011 OVC035 0 -1     96% -4   1019.7   0    
Nov 07 04:00 E 11 2.41 Light Snow and Fog/Mist FEW003 BKN009 OVC037 0 -1     96% -4   1019.7   0    
Nov 07 03:53 E 9 1.61 Light Snow and Fog/Mist BKN009 BKN013 OVC022 0 -1     96% -3   1019.7 1022 0    
Nov 07 03:09 ESE 8 1.21 Light Snow and Fog/Mist FEW003 OVC009 0 -1     96% -3   1020   0    
Nov 07 03:00 E 5 1.61 Light Snow and Fog/Mist FEW004 OVC009 1 -1     92% -1   1020   0    
Nov 07 02:53 E 5 2.01 Light Snow and Fog/Mist FEW004 OVC011 1 -1     92% -1   1020 1022.1 0    
Nov 07 02:42 E 8 2.01 Light Snow and Fog/Mist FEW005 OVC011 1 -1     92% -2   1020   0    
Nov 07 02:31 ESE 9 2.01 Light Snow and Fog/Mist BKN008 OVC013 1 -1     92% -2   1020.3   0    
Nov 07 02:24 ESE 8 2.01 Light Snow and Fog/Mist SCT006 BKN011 OVC020 1 -1     92% -2   1020.3   0    
Nov 07 02:16 SE 9 2.82 Light Snow and Fog/Mist BKN006 BKN011 OVC024 1 -1     92% -2   1020.3   0    
Nov 07 01:53 SSE 11 11.27 Light Rain BKN006 OVC019 2 1     92% -2   1020.3 1022.2 0 0  
Nov 07 01:36 SSE 9 12.87 Light Rain OVC008 2 1     89% -1   1020.3   0    
Nov 07 00:53 Calm 16.09 Light Rain OVC011 2 1     92%     1020.7 1022.5 0    
Nov 07 00:43 Calm 16.09 Light Rain BKN012 BKN025 OVC048 2 1     92%     1020.3   0    
Nov 07 00:34 Calm 16.09 Light Rain SCT012 BKN025 OVC055 2 1     92%     1020.3   0    
Nov 06 23:53 N 5 16.09 Light Rain FEW025 BKN042 OVC075 2 1     89% 1   1020.3 1022.4 0    
Nov 06 23:46 Calm 16.09 Cloudy FEW016 BKN037 OVC048 2 1     89%     1020.3   0    
Nov 06 22:53 Calm 16.09 Cloudy BKN017 OVC044 2 1     92%     1020.3 1022.6     0
Nov 06 22:38 NNE 5 16.09 Mostly Cloudy BKN017 BKN040 1 0     92% -1   1020.3        
Nov 06 21:53 Calm 16.09 Cloudy FEW020 BKN042 OVC050 2 1     89%     1020 1022.4 0    
Nov 06 20:53 NNW 9 16.09 Light Rain FEW016 BKN030 OVC039 2 1     89% -1   1020 1022.4 0    
Nov 06 20:32 NNW 5 16.09 Cloudy BKN016 BKN023 OVC075 3 1     89% 1   1020        
Nov 06 20:23 NW 13 16.09 Cloudy SCT016 BKN043 OVC075 2 1     92% -1   1020        
Nov 06 19:53 SW 5 16.09 Mostly Cloudy BKN050 BKN060 2 1     89% 1   1019.7 1021.9   0  
Nov 06 18:53 NNE 5 16.09 Cloudy FEW022 BKN060 OVC075 3 1     85% 2   1019.7 1021.9 0    
Nov 06 18:02 Calm 16.09 Light Rain FEW027 BKN035 OVC042 4 1     82%     1019.3   0    
Nov 06 17:53 Calm 16.09 Light Rain BKN029 OVC036 4 2     83%     1019.3 1021.4 0    
Nov 06 17:45 Calm 16.09 Light Rain FEW029 OVC036 4 1     82%     1019.3   0    
Nov 06 16:53 SSE 13 16.09 Cloudy OVC045 4 2     83% 1   1019.3 1021.3      
Nov 06 15:53 S 13 16.09 Mostly Cloudy FEW024 BKN060 BKN100 4 1     79% 1   1019.3 1021.4      
Nov 06 15:48 S 13 16.09 Cloudy SCT024 BKN070 OVC095 5 1     75% 2   1019        
Nov 06 15:12 SSE 9 16.09 Mostly Cloudy SCT016 BKN025 BKN080 5 1     76% 3   1019        
Nov 06 15:02 SE 11 16.09 Mostly Cloudy SCT013 SCT060 BKN080 6 2     76% 3   1019        
Nov 06 14:53 SSE 11 16.09 Mostly Cloudy BKN080 6 2     76% 3   1019 1020.7      
Nov 06 14:09 ESE 9 16.09 Cloudy SCT009 OVC075 4 2     83% 2   1019        
Nov 06 14:00 SE 11 16.09 Cloudy SCT009 BKN018 OVC075 4 2     86% 1   1019        
Nov 06 13:53 SSE 11 16.09 Cloudy BKN009 OVC080 4 2     83% 2   1019 1020.8      
Nov 06 12:53 SE 9 16.09 Mostly Cloudy BKN009 4 1     82% 2   1019 1020.8      
Nov 06 11:53 Calm 16.09 Cloudy BKN006 BKN016 OVC070 3 1     89%     1019 1020.9      
Nov 06 11:27 Calm 16.09 Cloudy BKN006 BKN016 OVC070 3 1     85%     1019        
Nov 06 11:20 Calm 16.09 Cloudy SCT006 BKN016 OVC070 3 1     85%     1019        
Nov 06 11:00 Calm 12.87 Cloudy FEW005 OVC014 2 1     92%     1018.6        
Nov 06 10:53 Calm 11.27 Cloudy BKN005 OVC014 3 1     89%     1018.6 1020.5     0
Nov 06 10:33 Calm 11.27 Cloudy BKN005 OVC014 2 1     92%     1018.3        
Nov 06 10:26 S 5 9.66 Fog/Mist BKN004 OVC014 1 1     96% -1   1018.3        
Nov 06 10:16 SE 8 8.05 Fog/Mist SCT003 OVC012 2 1     92% -1   1018.3        
Nov 06 10:09 SE 9 8.05 Fog/Mist FEW003 SCT009 OVC014 2 1     92% -1   1018.3        
Nov 06 09:53 E 8 11.27 Cloudy OVC009 2 0     88% -1   1018 1020.3 0    
Nov 06 09:39 E 5 9.66 Fog/Mist SCT009 OVC015 1 0     92% -1   1018   0    
Nov 06 09:32 E 5 9.66 Fog/Mist BKN009 OVC015 1 0     92% -1   1018   0    
Nov 06 09:16 Calm 6.44 Fog/Mist SCT009 BKN016 OVC028 1 0     96%     1018   0    
Nov 06 08:53 Calm 4.02 Light Rain and Fog/Mist SCT012 OVC019 1 0     96%     1017.6 1019.9 0    
Nov 06 07:53 Calm 8.05 Fog/Mist OVC015 1 -1     92%     1016.9 1019.1   0  
Nov 06 07:33 NNE 5 4.83 Fog/Mist OVC013 1 -1     92% -1   1016.6        
Nov 06 07:27 Calm 2.41 Fog/Mist OVC013 1 -1     92%     1016.6        
Nov 06 07:17 Calm 1.61 Fog/Mist FEW007 OVC013 1 -1     92%     1016.6        
Nov 06 07:08 Calm 2.41 Fog/Mist SCT004 OVC013 0 -1     96%     1016.6        
Nov 06 07:05 Calm 1.61 Fog/Mist SCT004 OVC013 0 -1     96%     1016.6        
Nov 06 07:00 Calm 1.21 Fog/Mist BKN004 OVC013 0 -1     96%     1016.6        
Nov 06 06:53 S 5 1.61 Fog/Mist OVC004 0 -1     96% -2   1016.6 1018.9 0    
Nov 06 06:51 S 5 1.61 Fog/Mist OVC004 0 -1     93% -2   1016.6   0    
Nov 06 06:47 SSW 5 2.82 Fog/Mist OVC004 0 -1     93% -2   1016.6   0    
Nov 06 06:42 S 5 6.44 Fog/Mist OVC004 0 -1     96% -2   1016.3   0    
Nov 06 05:53 Calm 14.48 Unknown Precipitation OVC005 1 -1     92%     1016.3 1018.5 0    
Nov 06 05:35 Calm 11.27 Light Snow BKN005 OVC022 1 -1     92%     1015.9   0    
Nov 06 05:14 Calm 6.44 Light Snow and Fog/Mist FEW006 BKN018 OVC022 1 -1     92%     1015.9   0    
Nov 06 05:03 Calm 3.22 Light Snow and Fog/Mist FEW006 BKN016 OVC024 1 -1     92%     1015.9   0    
Nov 06 04:53 Calm 2.82 Light Snow and Fog/Mist SCT006 OVC012 1 -1     92%     1015.9 1018.1 0   0
Nov 06 04:51 Calm 3.22 Light Snow and Fog/Mist SCT007 OVC012 1 -1     86%     1015.9   0    
Nov 06 04:30 E 5 3.22 Light Snow and Fog/Mist FEW002 OVC015 1 -1     92% -1   1015.6   0    
Nov 06 04:23 E 8 2.41 Light Snow and Fog/Mist FEW002 OVC013 1 -1     92% -2   1015.6   0    
Nov 06 04:08 Calm 2.41 Light Snow and Fog/Mist OVC007 1 -1     92%     1015.6   0    
Nov 06 03:53 ESE 5 1.61 Light Snow and Fog/Mist VV008 0 -1     96% -2   1015.6 1017.8 0    
Nov 06 03:50 SE 5 1.61 Light Snow and Fog/Mist VV008 0 -1     93% -2   1015.6   0    
Nov 06 03:43 SE 8 1.61 Light Snow and Fog/Mist FEW004 OVC010 0 -1     96% -3   1015.6   0    
Nov 06 03:36 SE 8 2.82 Light Snow and Fog/Mist SCT006 OVC010 1 -1     92% -2   1015.6   0    
Nov 06 03:31 SE 5 3.22 Light Snow and Fog/Mist BKN006 OVC010 1 -1     92% -1   1015.6   0    
Nov 06 03:03 SE 5 11.27 Light Rain OVC005 2 1     92% 0   1015.6   0    
Nov 06 02:53 SE 5 11.27 Light Rain BKN004 BKN010 OVC022 2 1     92% 0   1015.6 1017.1 0    
Nov 06 02:49 SE 5 12.87 Light Rain BKN004 BKN010 OVC022 2 1     93% 1   1015.2   0    
Nov 06 02:20 ESE 8 16.09 Light Rain FEW005 BKN010 OVC025 2 1     92% -1   1015.2   0    
Nov 06 01:53 ESE 9 11.27 Light Rain FEW006 SCT013 OVC024 2 1     92% -1   1015.2 1016.9 0 0  
Nov 06 01:00 ESE 8 16.09 Cloudy SCT007 OVC021 2 1     89% 0   1014.9        
Nov 06 00:53 SE 8 16.09 Cloudy BKN021 OVC090 2 1     89% 0   1014.9 1016.6      
Nov 06 00:48 ESE 8 16.09 Cloudy BKN021 OVC095 2 1     93% 0   1014.9        
Nov 06 00:30 ESE 8 16.09 Cloudy SCT018 OVC095 2 1     89% 0   1014.6        
Nov 06 00:18 E 9 16.09 Cloudy FEW014 BKN020 OVC085 2 1     89% -1   1014.6        
Nov 06 00:07 E 8 16.09 Cloudy BKN014 OVC019 2 1     89% 0   1014.6        
Nov 05 23:53 SSE 9 16.09 Cloudy BKN012 OVC019 2 1     89% -1   1014.6 1016.1 0    
Nov 05 23:42 SE 9 16.09 Cloudy FEW006 BKN012 OVC016 3 1     89% 0   1014.6   0    
Nov 05 23:22 SE 5 14.48 Light Rain FEW006 BKN014 OVC026 3 2     89% 2   1014.6   0    
Nov 05 22:53 Calm 16.09 Light Rain OVC015 3 2     89%     1014.6 1015.9 0   0
Nov 05 21:53 Calm 14.48 Light Rain OVC018 3 2     92%     1014.2 1015.9 0    
Nov 05 20:53 SW 8 16.09 Light Rain OVC021 3 2     92% 1   1014.2 1015.8 0    
Nov 05 20:11 NNE 8 16.09 Cloudy BKN020 OVC060 3 2     89% 1   1013.9        
Nov 05 19:53 ENE 5 16.09 Cloudy SCT016 BKN042 OVC060 3 1     85% 2   1013.9 1015.7 0 0  
Nov 05 18:53 NE 8 16.09 Light Rain SCT036 OVC048 3 2     89% 1   1013.9 1015.5 0    
Nov 05 17:53 S 11 16.09 Mostly Cloudy FEW038 BKN060 3 1     89% 0   1013.9 1015.5      
Nov 05 16:53 SE 5 16.09 Mostly Cloudy FEW038 BKN055 BKN100 4 1     82% 3   1013.9 1015.5 0   0
Nov 05 16:25 N 11 16.09 Cloudy BKN030 BKN070 OVC095 4 2     86% 1   1013.6   0    
Nov 05 15:53   6.44 Rain FEW018 OVC025 4 2     83%     1013.9 1015.2 0    
Nov 05 15:26 NNW 15 16.09 Light Rain BKN035 OVC042 6 1     70% 3   1012.9   0    
Nov 05 14:53 NNW 13 16.09 Cloudy BKN055 OVC070 7 0     62% 4   1012.9 1014.1 0    
Nov 05 13:53 WSW 17 16.09 Light Rain FEW028 BKN032 OVC080 6 1     73% 2   1012.9 1014.1 0 0  
Nov 05 12:53 NW 17 14.48 Light Rain FEW030 BKN050 OVC060 7 1     67% 4   1012.9 1013.9 0    
Nov 05 11:53 NNW 18 16.09 Cloudy SCT048 SCT055 OVC070 8 1     60% 5   1012.9 1013.9      
Nov 05 11:48   16.09 Cloudy FEW031 BKN048 OVC075 8 1     61%     1012.9        
Nov 05 10:53 NW 13 16.09 Mostly Cloudy BKN080 BKN110 7 1     65% 5   1013.2 1014.1     0
Nov 05 09:53 WSW 8 16.09 Cloudy BKN042 OVC049 6 2     76% 4   1013.2 1014.4      
Nov 05 08:53 Calm 16.09 Cloudy BKN055 OVC110 5 2     79%     1013.2 1014.5      
Nov 05 07:53 WSW 8 16.09 Cloudy BKN047 OVC060 4 1     79% 3   1012.9 1014.2   0  
Nov 05 06:53 N 8 16.09 Cloudy FEW043 OVC050 5 1     76% 3   1012.5 1013.6      
Nov 05 05:53 NNW 9 16.09 Cloudy SCT045 BKN060 OVC070 5 1     76% 3   1012.5 1013.5 0    
Nov 05 04:53 N 8 16.09 Mostly Cloudy SCT046 BKN060 BKN090 4 1     79% 3   1011.9 1012.8     0
Nov 05 03:53 Calm 16.09 Partly Cloudy FEW047 SCT060 5 2     79%     1011.9 1012.6      
Nov 05 02:53 Calm 16.09 Mostly Cloudy BKN085 4 2     83%     1011.5 1012.3 0    
Nov 05 01:53 NNW 9 16.09 Light Rain OVC055 5 3     86% 3   1011.2 1012 0 0  
Nov 05 00:53 N 8 8.05 Light Rain and Fog/Mist FEW022 SCT032 OVC044 5 3     89% 3   1011.2 1012 0    
Nov 05 00:42 WSW 11 14.48 Light Rain FEW021 SCT033 OVC044 5 3     89% 2   1011.2   0    
Nov 04 23:53 NNW 5 16.09 Cloudy OVC055 5 3     89% 4   1010.2 1011      
Nov 04 22:53 N 9 16.09 Cloudy FEW023 OVC055 6 4     89% 4   1010.2 1011.2 0   0
Nov 04 22:28 NNW 15 8.05 Rain FEW024 BKN031 OVC039 6 3     82% 3   1010.5   0    
Nov 04 21:53 N 8 16.09 Cloudy BKN050 OVC070 6 4     86% 5   1009.5 1010.5      
Nov 04 20:53 ESE 9 16.09 Cloudy SCT048 BKN060 OVC085 6 4     89% 4   1009.2 1010.1      
Nov 04 19:53 Calm 16.09 Cloudy SCT035 BKN046 OVC060 7 3     79%     1009.2 1010 0 0  
Nov 04 19:43 S 5 16.09 Light Rain SCT033 BKN041 OVC060 7 3     79% 6   1008.8   0    
Nov 04 18:53 NE 5 16.09 Cloudy FEW046 BKN080 OVC090 7 3     79% 6   1008.1 1009 0    
Nov 04 17:53 Calm 16.09 Cloudy OVC046 7 4     82%     1007.5 1008.3 0    
Nov 04 16:53 WSW 11 16.09 Cloudy BKN048 OVC060 8 2     65% 6   1006.8 1007.6     0
Nov 04 15:53 SW 17 16.09 Cloudy BKN055 BKN070 OVC085 9 2     59% 7   1006.4 1006.9      
Nov 04 14:53 E 5 16.09 Cloudy FEW041 OVC055 10 2     56%     1006.1 1006.4 0    
Nov 04 13:53 W 21 16.09 Cloudy BKN047 OVC060 10 2     56%     1005.4 1006      
Nov 04 12:53 Calm 16.09 Cloudy BKN042 OVC050 9 2     63%     1005.8 1006.2      
Nov 04 11:53 Calm 16.09 Cloudy BKN043 OVC050 9 3     66%     1006.1 1006.7      
Nov 04 10:53 Calm 16.09 Cloudy SCT045 OVC055 7 4     80%     1006.8 1007.3 0   0
Nov 04 09:53 N 11 9.66 Light Rain and Fog/Mist OVC031 6 3     85% 3   1007.1 1008 0    
Nov 04 09:42 WNW 13 6.44 Rain and Fog/Mist OVC033 6 4     89% 3   1007.1   0    
Nov 04 08:53 Calm 16.09 Light Rain BKN037 OVC046 7 3     76%     1007.1 1008 0    
Nov 04 07:53 Calm 16.09 Cloudy BKN041 OVC050 6 3     82%     1007.8 1008.6 0 0  
May 14 10:53 S 5 16.09 Clear CLR 14 6     55%     1020.3 1019.6      
May 14 06:53 SSE 5 16.09 Clear CLR 6 3     82% 5   1020.7 1020.5      
May 12 22:53 Calm 16.09 Clear CLR 11 3     59%     1014.9 1014.9      
May 12 18:53 N 15 16.09 Clear CLR 19 3     34%     1013.6 1013.5      
May 11 17:53   16.09 Mostly Clear FEW060 13 7     66%     1017.6 1017.8     0
Jun 11 20:53   16.09 Clear   18 2     34%     1009.8 1009.3      
Jun 11 14:53 W 8 16.09 Clear CLR 18 -2     25%     1012.2 1012.4      
Jun 10 12:13 8 9.66 Light Rain FEW035 BKN043 OVC055 11 5     66%     1007.5   0    
Jun 10 08:53 S 11 16.09 Clear CLR 11 5     68%     1007.5 1007.1      
Jun 09 13:53 11 16.09 Light Rain FEW026 SCT037 BKN047 14 9     72%     1009.2 1008.7 0    
Jun 08 21:53   16.09 Mostly Clear FEW120 18 11     63%     1007.5 1005.9      
Jun 07 23:53 E 17 16.09 Clear CLR 21 12     57%     1010.5 1008.2      
Jun 07 09:53 Calm 16.09 Clear CLR 19 11     61%     1015.6 1013.8      
Jun 06 01:53 N 8 16.09 Clear CLR 8 5     80% 7   1021.7 1021.1